Weather reports worldwide

Advertisment
Lahr, Germany (10805): temperature & dewpoint: 12.01.2020 13:00:00 - 18.01.2020 13:00:00 (CET)Lahr, Germany (10805): temperature 5cm & temperature -5cm: 12.01.2020 13:00:00 - 18.01.2020 13:00:00 (CET)Lahr, Germany (10805): temperature -20cm & temperature -100cm: 12.01.2020 13:00:00 - 18.01.2020 13:00:00 (CET)Lahr, Germany (10805): wind speed & gusts: 12.01.2020 13:00:00 - 18.01.2020 13:00:00 (CET)Lahr, Germany (10805): wind direction: 12.01.2020 13:00:00 - 18.01.2020 13:00:00 (CET)Lahr, Germany (10805): reduced air pressure: 12.01.2020 13:00:00 - 18.01.2020 13:00:00 (CET)Lahr, Germany (10805): visibility: 12.01.2020 13:00:00 - 18.01.2020 13:00:00 (CET)Lahr, Germany (10805): sunshine duration: 12.01.2020 13:00:00 - 18.01.2020 13:00:00 (CET)Lahr, Germany (10805): precipitation: 12.01.2020 13:00:00 - 18.01.2020 13:00:00 (CET)
Date & Time tt [°C] td [°C] tt 5cm [°C] tt -5cm [°C] tt -20cm [°C] tt -100cm [°C] ff [km/h] ff [kn] fx [km/h] fx [kn] dd ppp [hPa] vv [km] sd [min] rr [mm]
18.01.2020 13:00:00 6,7 2,7 6,3 5,4 5,0 7,4 8 4 19 10 SSW 1028,4 48 0 0,0
18.01.2020 12:00:00 6,2 2,5 6,4 5,1 4,9 7,4 12 6 18 10 S 1029,0 46 1 0,0
18.01.2020 11:00:00 5,6 2,3 5,4 4,4 4,9 7,4 10 5 26 14 SSW 1029,3 48 12 0,0
18.01.2020 10:00:00 4,9 2,3 3,9 3,5 5,0 7,4 13 7 22 12 SSW 1028,7 37 12 0,0
18.01.2020 09:00:00 4,7 2,6 3,5 3,2 5,1 7,4 11 6 17 9 S 1028,7 28 0 0,0
18.01.2020 08:00:00 3,9 2,4 2,0 3,2 5,3 7,4 9 5 14 7 S 1028,5 29 0 0,0
18.01.2020 07:00:00 4,3 2,7 2,2 3,2 5,4 7,4 5 3 13 7 SW 1028,3 29 0 0,0
18.01.2020 06:00:00 4,1 2,7 2,2 3,8 5,6 7,4 9 5 21 11 S 1028,0 25 0 0,0
18.01.2020 05:00:00 6,3 2,5 4,3 4,2 5,7 7,4 12 6 20 11 SSW 1027,5 57 0 0,0
18.01.2020 04:00:00 5,7 3,4 4,0 4,5 5,8 7,4 9 5 25 14 SSW 1026,8 34 0 0,0
18.01.2020 03:00:00 6,3 2,7 4,4 5,0 5,8 7,4 9 5 16 8 WSW 1026,6 62 0 0,0
18.01.2020 02:00:00 6,9 3,7 5,6 5,5 5,9 7,4 11 6 16 9 W 1025,9 47 0 0,0
18.01.2020 01:00:00 6,8 4,6 5,5 5,6 5,9 7,4 7 4 10 5 SSW 1025,0 27 0 0,0
18.01.2020 00:00:00 7,1 5,1 5,9 5,8 5,9 7,4 5 3 13 7 SSW 1024,8 22 0 0,0
17.01.2020 23:00:00 7,6 5,1 6,2 5,9 5,8 7,4 10 5 17 9 SSW 1024,3 26 0 0,0
17.01.2020 22:00:00 7,9 6,0 6,7 6,1 5,8 7,4 13 7 21 11 SSW 1023,5 16 0 0,0
17.01.2020 21:00:00 7,6 6,4 6,4 6,1 5,7 7,4 11 6 23 12 SSW 1022,8 11 0 0,0
17.01.2020 20:00:00 7,9 6,6 6,6 6,3 5,7 7,4 16 9 22 12 S 1022,2 12 0 0,0
17.01.2020 19:00:00 8,0 7,0 7,1 6,4 5,6 7,4 15 8 20 11 S 1021,8 10 0 0,1
17.01.2020 18:00:00 7,9 7,0 7,1 6,3 5,4 7,4 9 5 18 10 S 1021,5 6 0 0,5
17.01.2020 17:00:00 8,2 6,8 7,2 6,4 5,2 7,4 15 8 22 12 S 1020,7 10 0 0,9
17.01.2020 16:00:00 8,8 6,5 7,4 6,4 5,0 7,4 12 7 21 11 SSW 1020,4 11 0 1,0
17.01.2020 15:00:00 10,0 4,8 8,0 6,2 4,8 7,4 11 6 19 10 SW 1019,8 17 0 0,1
17.01.2020 14:00:00 11,1 3,2 9,7 5,9 4,5 7,4 11 6 23 13 SSW 1019,7 65 0 0,0
17.01.2020 13:00:00 11,1 3,3 9,9 5,5 4,2 7,4 18 10 26 14 SSW 1019,9 63 0 0,0
17.01.2020 12:00:00 6,0 4,0 6,4 3,9 4,1 7,4 4 2 6 4 N 1020,9 10 0 0,0
17.01.2020 11:00:00 4,1 2,3 3,9 2,2 4,1 7,3 5 3 9 5 NNE 1021,4 12 0 0,0
17.01.2020 10:00:00 2,1 1,0 1,6 1,1 4,2 7,3 4 2 8 5 ESE 1022,1 7 16 0,0
17.01.2020 09:00:00 1,0 0,3 -1,5 1,0 4,4 7,3 4 2 6 3 SE 1021,8 9 0 0,0
17.01.2020 08:00:00 0,5 -0,5 -2,5 1,0 4,6 7,3 4 2 6 3 - 1021,7 10 0 0,0
17.01.2020 07:00:00 1,2 0,0 -0,8 1,0 4,8 7,3 4 2 11 6 SSW 1021,8 11 0 0,0
17.01.2020 06:00:00 0,8 0,2 -1,4 1,1 5,1 7,3 6 3 7 4 SW 1022,2 8 0 0,0
17.01.2020 05:00:00 1,1 0,4 -1,6 1,5 5,3 7,3 2 1 10 5 ENE 1022,8 14 0 0,0
17.01.2020 04:00:00 1,4 0,5 -0,3 2,0 5,6 7,3 5 3 16 8 SSW 1023,4 15 0 0,0
17.01.2020 03:00:00 2,6 1,8 0,0 2,1 5,8 7,3 9 5 13 7 S 1024,0 27 0 0,0
17.01.2020 02:00:00 2,3 1,2 -0,1 2,6 6,1 7,3 9 5 12 7 W 1024,3 14 0 0,0
17.01.2020 01:00:00 3,5 2,0 0,7 3,1 6,4 7,3 9 5 11 6 S 1024,2 19 0 0,0
17.01.2020 00:00:00 4,5 2,7 1,2 3,6 6,7 7,3 6 3 10 5 S 1024,3 22 0 0,0
16.01.2020 23:00:00 4,1 2,2 0,8 4,1 7,0 7,3 3 1 13 7 WSW 1024,6 17 0 0,0
16.01.2020 22:00:00 6,0 3,7 2,7 4,6 7,3 7,3 10 5 16 8 S 1025,1 18 0 0,0
16.01.2020 21:00:00 5,6 3,9 0,9 5,2 7,7 7,3 2 1 8 5 NNW 1025,4 20 0 0,0
16.01.2020 20:00:00 5,1 3,7 1,3 6,1 8,0 7,3 13 7 10 5 ESE 1025,8 10 0 0,0
16.01.2020 19:00:00 6,1 4,1 2,4 7,2 8,2 7,3 9 5 9 5 ESE 1026,2 10 0 0,0
16.01.2020 18:00:00 9,2 4,5 5,3 8,6 8,3 7,3 5 3 7 4 SSW 1026,0 33 0 0,0
16.01.2020 17:00:00 11,5 5,5 6,9 10,6 8,1 7,3 5 3 6 4 N 1025,8 10 35 0,0
16.01.2020 16:00:00 13,1 5,9 11,7 12,4 7,8 7,3 4 2 9 5 NNW 1025,8 10 60 0,0
16.01.2020 15:00:00 14,4 4,0 13,5 12,8 7,4 7,2 4 2 11 6 - 1025,7 10 60 0,0
16.01.2020 14:00:00 14,3 4,3 13,9 12,5 7,0 7,2 4 2 10 6 - 1026,4 10 60 0,0
16.01.2020 13:00:00 13,8 4,3 14,4 11,3 6,6 7,2 8 4 8 5 W 1027,2 10 60 0,0
16.01.2020 12:00:00 12,5 3,9 13,8 9,4 6,3 7,2 5 3 8 4 W 1028,1 37 50 0,0
16.01.2020 11:00:00 10,2 5,7 9,6 6,9 6,3 7,2 4 2 8 4 SSW 1028,8 40 0 0,0
16.01.2020 10:00:00 8,3 5,2 8,0 6,0 6,4 7,2 2 1 7 4 SSE 1029,1 10 0 0,0
16.01.2020 09:00:00 7,6 4,0 5,6 5,6 6,4 7,2 5 3 8 5 SSE 1029,0 31 0 0,0
16.01.2020 08:00:00 7,9 4,1 5,4 6,0 6,5 7,2 4 2 13 7 SSE 1028,7 44 0 0,0
16.01.2020 07:00:00 8,4 3,6 6,3 6,5 6,5 7,2 8 4 10 6 SW 1028,3 70 0 0,0
16.01.2020 06:00:00 10,8 4,1 8,6 6,9 6,5 7,2 8 4 13 7 S 1027,9 67 0 0,0
16.01.2020 05:00:00 11,2 4,1 9,7 7,0 6,5 7,2 10 5 14 8 S 1027,8 70 0 0,0
16.01.2020 04:00:00 11,4 4,0 10,0 7,0 6,5 7,2 10 5 19 10 SSW 1027,4 70 0 0,0
16.01.2020 03:00:00 11,8 3,8 10,3 7,1 6,4 7,2 11 6 20 11 SSW 1027,1 70 0 0,0
16.01.2020 02:00:00 12,0 3,7 10,6 7,1 6,4 7,2 14 8 24 13 SSW 1026,6 70 0 0,0
16.01.2020 01:00:00 12,1 3,7 10,7 7,0 6,4 7,2 16 9 24 13 S 1026,2 70 0 0,0
16.01.2020 00:00:00 12,4 3,5 11,0 7,0 6,3 7,2 19 10 30 16 S 1025,7 70 0 0,0
15.01.2020 23:00:00 12,3 3,7 10,9 7,0 6,3 7,2 21 11 32 17 S 1024,9 70 0 0,0
15.01.2020 22:00:00 12,4 3,8 10,8 6,9 6,3 7,2 19 10 29 16 SSW 1024,0 70 0 0,0
15.01.2020 21:00:00 12,6 3,9 11,0 6,8 6,3 7,2 20 11 33 18 S 1023,5 70 0 0,0
15.01.2020 20:00:00 12,6 3,8 11,0 6,4 6,3 7,2 19 11 29 16 S 1022,9 70 0 0,0
15.01.2020 19:00:00 10,9 3,6 8,5 6,1 6,4 7,2 18 10 20 11 S 1022,5 10 0 0,0
15.01.2020 18:00:00 12,0 3,2 9,5 6,8 6,4 7,2 16 9 27 14 SSW 1021,3 64 0 0,0
15.01.2020 17:00:00 12,5 3,3 9,8 7,8 6,3 7,2 16 9 27 15 S 1020,5 10 32 0,0
15.01.2020 16:00:00 13,8 3,0 11,9 8,8 6,0 7,2 18 10 32 18 S 1019,7 10 49 0,0
15.01.2020 15:00:00 13,9 2,8 12,7 9,4 5,6 7,2 22 12 36 20 SSW 1019,5 48 60 0,0
15.01.2020 14:00:00 13,9 2,6 13,2 9,1 5,2 7,2 29 15 43 23 SSW 1019,1 28 60 0,0
15.01.2020 13:00:00 12,8 2,5 12,0 8,1 4,8 7,2 24 13 37 20 SSW 1019,3 10 50 0,0
15.01.2020 12:00:00 12,7 2,2 13,2 6,5 4,6 7,2 16 9 32 18 SSW 1019,3 50 60 0,0
15.01.2020 11:00:00 12,3 1,6 12,5 4,5 4,6 7,2 18 10 29 16 SSW 1019,4 10 60 0,0
15.01.2020 10:00:00 10,5 1,4 7,5 2,9 4,7 7,2 9 5 20 11 SW 1019,2 10 60 0,0
15.01.2020 09:00:00 9,0 0,6 5,8 2,8 4,8 7,2 13 7 19 10 SSW 1019,2 10 5 0,0
15.01.2020 08:00:00 7,5 0,5 4,5 2,8 5,0 7,2 13 7 19 10 S 1018,9 62 0 0,0
15.01.2020 07:00:00 5,8 0,8 2,9 3,1 5,1 7,2 12 7 15 8 S 1019,1 43 0 0,0
15.01.2020 06:00:00 6,9 0,9 3,7 3,7 5,2 7,2 9 5 16 8 S 1018,5 59 0 0,0
15.01.2020 05:00:00 8,5 1,4 6,2 4,3 5,3 7,2 10 6 18 10 SSW 1018,3 68 0 0,0
15.01.2020 04:00:00 8,5 1,6 6,4 4,2 5,3 7,2 11 6 16 9 S 1018,3 66 0 0,0
15.01.2020 03:00:00 8,2 1,6 5,4 4,4 5,4 7,2 9 5 23 12 SSW 1018,4 70 0 0,0
15.01.2020 02:00:00 10,0 1,5 7,7 4,5 5,5 7,2 17 9 25 14 S 1018,0 70 0 0,0
15.01.2020 01:00:00 10,2 1,5 7,7 4,7 5,6 7,2 16 9 23 13 S 1018,0 68 0 0,0
15.01.2020 00:00:00 10,4 1,6 7,6 4,8 5,7 7,2 11 6 23 13 SSW 1018,2 10 0 0,0
14.01.2020 23:00:00 9,6 1,9 6,0 5,2 5,8 7,2 8 4 22 12 WSW 1017,9 61 0 0,0
14.01.2020 22:00:00 11,2 1,8 9,0 5,5 5,8 7,2 16 9 26 14 S 1017,4 69 0 0,0
14.01.2020 21:00:00 11,1 1,8 8,5 5,8 5,8 7,2 13 7 21 12 S 1017,3 54 0 0,0
14.01.2020 20:00:00 11,6 2,1 9,3 6,2 5,8 7,2 14 8 24 13 SSW 1017,4 69 0 0,0
14.01.2020 19:00:00 12,5 1,8 10,5 6,6 5,8 7,2 18 10 31 17 S 1017,1 10 0 0,0
14.01.2020 18:00:00 12,7 1,8 11,0 6,6 5,7 7,2 21 11 31 17 S 1016,9 10 0 0,0
14.01.2020 17:00:00 12,6 1,1 10,9 6,8 5,6 7,2 21 12 35 19 S 1016,5 70 0 0,0
14.01.2020 16:00:00 12,3 1,1 11,1 7,2 5,4 7,2 22 12 37 20 S 1016,3 64 0 0,0
14.01.2020 15:00:00 12,4 -0,1 11,5 7,6 5,1 7,2 24 13 41 22 S 1015,9 56 5 0,0
14.01.2020 14:00:00 12,6 -0,1 12,5 7,7 4,8 7,2 24 13 40 21 S 1016,1 10 20 0,0
14.01.2020 13:00:00 11,5 -0,7 11,4 6,9 4,4 7,2 31 17 41 22 S 1016,7 10 3 0,0
14.01.2020 12:00:00 11,1 -0,7 11,2 6,1 4,2 7,2 34 18 45 24 S 1016,9 10 13 0,0
14.01.2020 11:00:00 10,7 -1,9 10,6 4,6 4,0 7,2 33 18 47 25 S 1016,9 51 4 0,0
14.01.2020 10:00:00 9,3 -1,3 8,3 3,5 4,0 7,3 21 11 32 17 S 1017,0 65 3 0,0
14.01.2020 09:00:00 8,3 -1,2 6,9 2,6 4,0 7,3 22 12 32 17 SSW 1016,9 54 5 0,0
14.01.2020 08:00:00 7,3 -1,4 4,8 2,3 4,1 7,3 16 9 34 18 SSW 1016,6 46 0 0,0
14.01.2020 07:00:00 7,3 -1,8 4,7 2,3 4,2 7,3 16 9 27 15 S 1016,3 49 0 0,0
14.01.2020 06:00:00 5,6 -0,8 3,1 2,6 4,2 7,3 11 6 19 10 SSW 1016,3 44 0 0,0
14.01.2020 05:00:00 7,9 -0,9 5,6 2,9 4,3 7,3 11 6 37 20 SSW 1015,6 70 0 0,0
14.01.2020 04:00:00 8,3 -0,5 6,2 3,0 4,3 7,3 21 11 33 18 S 1015,7 65 0 0,0
14.01.2020 03:00:00 7,5 0,7 5,4 2,6 4,4 7,3 16 8 29 16 S 1016,5 57 0 0,0
14.01.2020 02:00:00 6,4 1,2 4,1 2,2 4,6 7,3 19 11 29 15 SSW 1016,7 36 0 0,0
14.01.2020 01:00:00 3,0 1,4 0,7 2,3 4,8 7,3 10 5 16 9 S 1017,7 12 0 0,0
14.01.2020 00:00:00 3,6 2,0 1,2 2,9 4,9 7,3 8 5 22 12 S 1018,0 15 0 0,0
13.01.2020 23:00:00 4,8 2,4 3,1 3,3 5,0 7,3 12 7 20 11 S 1018,3 15 0 0,0
13.01.2020 22:00:00 4,9 3,0 3,0 3,9 5,1 7,3 7 4 12 6 S 1018,3 13 0 0,0
13.01.2020 21:00:00 5,6 3,4 3,9 4,1 5,3 7,3 8 5 11 6 S 1018,4 20 0 0,0
13.01.2020 20:00:00 5,9 3,8 4,8 3,9 5,4 7,3 9 5 13 7 S 1019,0 16 0 0,0
13.01.2020 19:00:00 3,5 1,7 0,6 4,2 5,6 7,3 5 3 9 5 S 1019,6 18 0 0,0
13.01.2020 18:00:00 5,7 3,3 1,7 5,2 5,6 7,3 5 3 12 6 SSE 1019,7 19 0 0,0
13.01.2020 17:00:00 7,4 3,4 4,6 6,4 5,5 7,3 8 5 16 9 S 1019,8 19 31 0,0
13.01.2020 16:00:00 8,8 3,5 7,6 7,7 5,2 7,3 11 6 19 11 S 1020,0 20 60 0,0
13.01.2020 15:00:00 8,6 3,2 8,0 7,7 5,0 7,3 10 6 15 8 SSE 1020,6 22 33 0,0
13.01.2020 14:00:00 6,9 2,8 6,8 6,4 4,8 7,3 9 5 16 9 W 1021,7 10 0 0,0
13.01.2020 13:00:00 7,2 2,7 7,6 5,8 4,6 7,3 6 3 16 9 SW 1022,3 23 0 0,0
13.01.2020 12:00:00 6,6 3,2 6,9 5,3 4,4 7,3 10 6 14 8 W 1023,1 21 0 0,0
13.01.2020 11:00:00 5,8 3,1 5,8 4,5 4,4 7,3 7 4 16 9 S 1023,7 15 0 0,0
13.01.2020 10:00:00 5,6 2,3 5,1 3,9 4,3 7,3 10 6 16 9 SSW 1024,2 20 0 0,0
13.01.2020 09:00:00 4,5 2,4 3,9 3,6 4,3 7,3 6 4 12 6 SSW 1024,7 9 0 0,0
13.01.2020 08:00:00 4,3 2,2 3,6 3,4 4,4 7,3 5 3 8 4 S 1025,0 6 0 0,0
13.01.2020 07:00:00 4,0 1,9 2,8 3,4 4,4 7,3 5 3 7 4 SSW 1025,4 11 0 0,0
13.01.2020 06:00:00 4,4 2,1 3,4 3,6 4,4 7,3 4 2 7 4 SSW 1025,7 11 0 0,0
13.01.2020 05:00:00 4,5 2,2 3,7 3,6 4,4 7,3 5 3 8 4 S 1026,4 11 0 0,0
13.01.2020 04:00:00 4,9 2,1 4,0 3,7 4,4 7,3 4 2 14 7 SW 1027,0 14 0 0,0
13.01.2020 03:00:00 5,2 2,1 4,4 3,7 4,3 7,3 10 5 14 8 S 1027,4 15 0 0,0
13.01.2020 02:00:00 5,0 2,2 4,4 3,8 4,3 7,3 9 5 16 8 SSW 1027,7 12 0 0,0
13.01.2020 01:00:00 5,0 2,2 4,4 3,8 4,3 7,3 6 4 24 13 SSW 1028,4 13 0 0,0
13.01.2020 00:00:00 5,4 1,6 4,8 3,7 4,3 7,3 15 8 23 13 SSW 1028,8 16 0 0,0
12.01.2020 23:00:00 5,4 1,2 4,8 3,6 4,2 7,3 14 8 19 11 S 1029,0 17 0 0,0
12.01.2020 22:00:00 5,2 0,8 4,5 3,5 4,2 7,3 14 7 25 13 SSW 1029,3 18 0 0,0
12.01.2020 21:00:00 5,0 0,6 4,4 3,5 4,2 7,3 13 7 25 14 S 1029,5 18 0 0,0
12.01.2020 20:00:00 5,1 0,6 4,5 3,5 4,2 7,3 16 9 28 15 SSW 1029,5 19 0 0,0
12.01.2020 19:00:00 5,1 0,8 4,5 3,3 4,2 7,3 16 9 27 14 SSW 1029,3 17 0 0,0
12.01.2020 18:00:00 4,8 0,8 3,9 3,1 4,2 7,3 13 7 26 14 S 1029,0 19 0 0,0
12.01.2020 17:00:00 4,5 0,7 3,2 4,0 4,0 7,3 16 8 22 12 S 1029,2 19 11 0,0
12.01.2020 16:00:00 5,7 1,1 5,2 4,9 3,8 7,3 14 7 27 14 S 1029,1 23 58 0,0
12.01.2020 15:00:00 5,6 0,9 5,3 4,2 3,5 7,3 18 10 29 16 SSW 1028,9 27 17 0,0
12.01.2020 14:00:00 4,9 1,0 4,8 3,5 3,4 7,3 18 10 28 15 S 1029,1 17 0 0,0
12.01.2020 13:00:00 4,4 0,8 4,6 1,9 3,3 7,3 15 8 23 12 SSW 1029,7 16 0 0,0

tt = temperature
td = dewpoint
tt 5cm = temperature 5cm
tt -5cm = temperature -5cm
tt -20cm = temperature -20cm
tt -100cm = temperature -100cm
ff = wind speed
fx = gusts
dd = wind direction
ppp = reduced air pressure
vv = visibility
sd = sunshine duration
rr = precipitation

Next stations